STARLINK-2187, 48562

Orbit data source: Space-Track

STARLINK-2187, 48562 is a payload satellite owned by SpaceX/Seattle (US) in LEO that was launched on Sat, 15 May 2021 UTC via an FALCON 9 launch vehicle from the Air Force Eastern Test Range (AFETR). Payload-class satellites include a variety of spacecraft equipped with specific instruments for various scientific and technological missions. These include communications satellites like Starlink; space stations such as the ISS; scientific satellites like the Hubble; Earth observation satellites from companies like Planet Labs, Umbra, and HawkEye 360; GPS; miniature CubeSats for education and research; and military/defense satellites.

Loading next visibility...
Identifier
48562, 2021-041K
Orbit
LEO
Country
Flag of USUS
Related business
Manufacturer
SpaceX/Seattle
Mission
Operational Commercial Communications
Bus & Motor
STARLINK, Unknown motor
Mass
260 kg wet, ~248 kg dry
Launch date (UTC)
2021-05-15 (5 years ago)
Launch vehicle
FALCON 9
Launch site
Air Force Eastern Test Range (AFETR)
Object type
Payload
Rocket body
Debris
Shape & HBR
Box + 1 Pan, 10.1 m
Radar Cross Section
13.562 m², Large (>1 m²)

Expand to show TLE details & history
Last TLE update: 21 hours ago

TLE from 21 hours ago
0 STARLINK-2187
1 48562U 21041K   25348.89104440  .00006167  00000-0  43266-3 0  9999
2 48562  53.0523 152.2973 0001391  87.4072 272.7076 15.06388984252424
Epoch: 2025-12-14T21:23Z
TLE epoch observation values (Epoch: 2025-12-14T21:23:06.236Z)
Latitude
-0.00002°
Longitude
107.72384°
Altitude
548.079 km
Speed
7.589 km/s
True Right ascension
10h 09m 11s
True Declination
0° 00' 00"
Sunlit
Object was in daylight at epoch
Visualization orbit readout
Latitude
Unknown
Longitude
Unknown
Altitude
Unknown
Speed
Unknown
Apparent Right ascension
Unknown
Apparent Declination
Unknown
Sunlit
N/A
Visualization observer readout
Local Sidereal Time
17:25:43
Azimuth
Unknown
Elevation
Unknown
Doppler factor
Unknown
Orbital elements
Apogee altitude
548.48 km
Perigee altitude
546.553 km
Semi-major axis
6,925.653 km
Eccentricity
0.00014
Inclination
53.0523°
RAAN
152.2973°
Arg. of periapsis
87.4072°
True anomaly
272.69168°
Mean anomaly
272.7076°
Eccentric anomaly
272.69964°
Mean motion
3.76575 °/min
Orbital period
95.6 mins
BSTAR
0.00043266
Loading maneuver chart data...
Computing Atmospheric mass density...
Loading historical data...
Loading historical data...
Loading historical data...
Loading historical data...
Loading historical data...
Loading historical data...
Loading historical data...

Documentation

Showing up to 5 results
|